Preview of NWS' New Version of Forecast
This preview is not operational and should not be used for support decisions.

Regional Weather Roundup (RWR)

Issued by National Weather Service (NWS)

                            
000
ASUS43 KDMX 232301
RWRIA 

WEATHER ROUNDUP FOR IOWA
NATIONAL WEATHER SERVICE DES MOINES IA
600 PM CDT TUE APR 23 2019

NOTE: "FAIR" INDICATES FEW OR NO CLOUDS BELOW 12,000 FEET WITH NO
SIGNIFICANT WEATHER AND/OR OBSTRUCTIONS TO VISIBILITY.

* - THESE STATIONS ARE NOT NWS STATIONS...THUS NOT UNDER NWS
QUALITY CONTROL.  THEY ALSO DO NOT REPORT WEATHER SUCH 
AS PRECIPITATION OR FOG.  

IAZ001>003-012>014-020>022-031>034-043>046-240000-
   NORTHWEST IOWA
  
CITY           SKY/WX    TMP DP  RH WIND       PRES   REMARKS
CARROLL *      SUNNY     66  30  26 E12       30.02F                  
CHEROKEE *     SUNNY     66  33  30 CALM      30.03S                  
DENISON *      SUNNY     66  32  28 E10       30.03F                  
LE MARS *        N/A    N/A N/A N/A MISG        N/A                   
SHELDON *      MOSUNNY   64  34  32 VRB7      30.01S                  
SIOUX CITY     SUNNY     68  34  28 E8        30.02F                  
SPENCER        SUNNY     66  33  29 CALM      30.03F                  
STORM LAKE *   SUNNY     64  28  25 VRB5      30.00S                  
$$
 
IAZ055>058-069>071-079>083-090>094-240000-
   SOUTHWEST IOWA
  
CITY           SKY/WX    TMP DP  RH WIND       PRES   REMARKS
ATLANTIC *     CLOUDY    64  30  27 E8        30.01F                  
AUDUBON *      CLOUDY    64  34  32 CALM      30.04F                  
CLARINDA *     CLOUDY    63  46  55 S10       30.04S                  
COUNCIL BLFS * CLOUDY    66  28  24 VRB6G13   30.01F                  
CRESTON *      CLOUDY    63  41  45 E8        30.03S                  
HARLAN  *      SUNNY     66  30  26 E8G16     30.02F                  
LAMONI         CLOUDY    58  46  64 SE5       30.04S                  
RED OAK *      MOSUNNY   68  34  28 E9        30.01F                  
SHENANDOAH *   MOSUNNY   66  39  37 SE10      30.00F                  
$$
 
IAZ047>049-059>061-072>074-084-240000-
   CENTRAL IOWA
  
CITY           SKY/WX    TMP DP  RH WIND       PRES   REMARKS
AMES           SUNNY     65  35  33 E6        30.02F                  
ANKENY *       CLOUDY    66  34  30 E9        30.03S                  
BOONE *        SUNNY     64  36  34 E6        30.02F                  
CHARITON *     CLOUDY    63  45  51 SE7       30.03S                  
DES MOINES     CLOUDY    66  33  29 E8        30.02F                  
GRINNELL*      MOSUNNY   65  35  32 E6        30.04S                  
KNOXVILLE *    MOSUNNY   63  34  34 SE8       30.03S                  
MARSHALLTOWN   SUNNY     65  37  35 E7        30.02S                  
NEWTON *       MOSUNNY   64  36  34 E9        30.03S                  
PELLA *        CLOUDY    65  33  30 SE7       30.04S                  
PERRY *        FAIR      66  32  27 E6        30.03F                  
$$
 
IAZ004>006-015-016-023>025-035-036-240000-
   NORTH CENTRAL IOWA
  
CITY           SKY/WX    TMP DP  RH WIND       PRES   REMARKS
ALGONA *       SUNNY     64  32  29 VRB5G13   30.02F                  
CLARION *      SUNNY     66  32  28 E10       30.04S                  
ESTHERVILLE    SUNNY     63  33  32 VRB3      30.03F                  
FORT DODGE *   SUNNY     66  34  30 E6        30.03F                  
MASON CITY     SUNNY     65  35  33 E5        30.05S                  
FOREST CITY *  FAIR      64  30  27 CALM      30.04S                  
IOWA FALLS *   FAIR      66  35  32 E6        30.05S                  
$$

IAZ007>011-017>019-026>030-037>042-050>054-066-240000-
   NORTHEAST IOWA
  
CITY           SKY/WX    TMP DP  RH WIND       PRES   REMARKS
CEDAR RAPIDS   FAIR      63  39  41 E7        30.02S                  
CHARLES CITY * FAIR      64  32  29 N6        30.04S                  
CLINTON *      FAIR      63  41  44 NE8       30.03S                  
DECORAH *      FAIR      63  30  29 E3        30.03R                  
DUBUQUE        FAIR      64  35  34 VRB5      30.03S                  
MONTICELLO *   FAIR      64  37  36 CALM      30.03S                  
OELWEIN *      FAIR      64  36  34 CALM      30.04S                  
WATERLOO       FAIR      66  38  35 E7        30.03S                  
$$
 
IAZ064-065-067-068-078-240000-
   EAST CENTRAL IOWA
  
CITY           SKY/WX    TMP DP  RH WIND       PRES   REMARKS
DAVENPORT        N/A    N/A N/A N/A MISG      30.05S                  
IOWA CITY      FAIR      63  42  46 SE8       30.05R                  
MT. PLEASANT * MOSUNNY   61  46  59 SE5       30.06R                  
MUSCATINE *    FAIR      63  43  48 CALM      30.04S                  
QUAD CITIES    FAIR      64  43  46 CALM      30.03S                  
$$
 
IAZ062-063-075>077-085>089-095>099-240000-
   SOUTHEAST IOWA
  
CITY           SKY/WX    TMP DP  RH WIND       PRES   REMARKS
BURLINGTON     CLOUDY    58  45  62 CALM      30.05S                  
FAIRFIELD *    PTSUNNY   61  45  55 SE7       30.04S                  
FORT MADISON * CLOUDY    57  48  72 CALM      30.06F                  
KEOKUK *       CLOUDY    55  48  76 CALM      30.06R                  
OSKALOOSA *    FAIR      63  34  34 E6        30.04S                  
CENTERVILLE *  FAIR      57  48  72 CALM      30.06S                  
OTTUMWA        MOSUNNY   62  45  53 SE6       30.03S                  
WASHINGTON *   PTSUNNY   63  41  45 E8        30.05S                  
$$

ABBREVIATIONS USED IN REMARKS
   TC - TEMPERATURES IN CELSIUS
  WCI - WIND CHILL INDEX
   HX - HEAT INDEX
  VSB - VISIBILITY  
$$